COSMOS 2251 DEB, 34009

Orbit data source: Space-Track

COSMOS 2251 DEB, 34009 is space debris in LEO originally from a launch on Wed, 16 Jun 1993 UTC launched from the Plesetsk Missile And Space Complex (PKMTR). The debris from Iridium 33, an American commercial communications satellite, has been tracked extensively since its accidental collision with the defunct Russian satellite Cosmos 2251 in 2009. This event, occurring at high speed in low Earth orbit (LEO), generated thousands of pieces of space debris, significantly increasing the risk of further collisions. The Iridium 33 debris cloud has impacted space traffic management and orbital debris mitigation strategies, making it a subject of ongoing study in space situational awareness.

Loading next visibility...
Identifier
34009, 1993-036GU
Orbit
LEO
Country
Flag of CISCIS
Related business
Manufacturer
Unknown
Mission
Spacecraft
Bus & Motor
Unknown
Mass
Unknown
Launch date (UTC)
1993-06-16 (33 years ago)
Launch vehicle
Unknown
Launch site
Plesetsk Missile And Space Complex (PKMTR)
Object type
Payload
Rocket body
Debris
Shape & HBR
Unknown shape, 0.1 m
Radar Cross Section
Small (<0.1 m²)

Expand to show TLE details & history
Last TLE update: 22 hours ago

TLE from 22 hours ago
0 COSMOS 2251 DEB
1 34009U 93036GU  26072.30111689  .00000380  00000-0  14677-3 0  9992
2 34009  74.0381 171.4319 0028306 223.2871 197.2136 14.33307221892432
Epoch: 2026-03-13T07:13Z
TLE epoch observation values (Epoch: 2026-03-13T07:13:36.499Z)
Latitude
56.8288°
Longitude
-82.10736°
Altitude
809.224 km
Speed
7.444 km/s
True Right ascension
13h 08m 56s
True Declination
56° 40' 20"
Sunlit
Object was in full shadow at epoch
Visualization orbit readout
Latitude
Unknown
Longitude
Unknown
Altitude
Unknown
Speed
Unknown
Apparent Right ascension
Unknown
Apparent Declination
Unknown
Sunlit
N/A
Visualization observer readout
Local Sidereal Time
09:35:16
Azimuth
Unknown
Elevation
Unknown
Doppler factor
Unknown
Orbital elements
Apogee altitude
798.581 km
Perigee altitude
758.067 km
Semi-major axis
7,156.461 km
Eccentricity
0.00283
Inclination
74.0381°
RAAN
171.4319°
Arg. of periapsis
223.2871°
True anomaly
197.11793°
Mean anomaly
197.2136°
Eccentric anomaly
197.16573°
Mean motion
3.58505 °/min
Orbital period
100.42 mins
BSTAR
0.00014677

Documentation

Showing up to 5 results
|